Poplar Bluff, MO

2:44 PM CDT on May 23, 2018 (GMT -0500)
Poplar Bluff Municipal

Weather History for KPOF - June, 2013

Change the Weather History Date:

Wednesday, June 5, 2013

  Actual Average Record
Temperature  
Mean Temperature 74 °F -  
Max Temperature 86 °F 83 °F 97 °F (1971)
Min Temperature 64 °F 62 °F 46 °F (1954)
Cooling Degree Days 9    
Growing Degree Days 24 (Base 50)    
Moisture  
Dew Point 64 °F    
Average Humidity 72    
Maximum Humidity 90    
Minimum Humidity 49    
Precipitation  
Precipitation 0.34 in - - ()
Sea Level Pressure  
Sea Level Pressure 29.88 in    
Wind  
Wind Speed 3 mph (NE)    
Max Wind Speed 15 mph    
Max Gust Speed 25 mph    
Visibility 9 miles    
Events Rain , Thunderstorm    
Averages and records for this station are not official NWS values.
T = Trace of Precipitation, MM = Missing Value Source: NWS Daily Summary

Daily Weather History Graph

Daily Weather History Graph

Search for Another Location

Airport or City:

Astronomy

Jun. 05, 2013 Rise Set
Actual Time 5:42 AM CDT 8:17 PM CDT
Civil Twilight 5:12 AM CDT 8:47 PM CDT
Nautical Twilight 4:34 AM CDT 9:25 PM CDT
Astronomical Twilight 3:52 AM CDT 10:07 PM CDT
Moon 3:43 AM CDT (6/5) 5:46 PM CDT (6/5)
Length of Visible Light 15h 35m
Length of Day
14h 34m
Waning Crescent, 8% of the Moon is Illuminated
Jun 5
Waning Crescent
Jun 8
New
Jun 16
First Quarter
Jun 23
Full
Jun 29
Last Quarter

Hourly Weather History & Observations

Time (CDT) Temp. Heat Index Dew Point Humidity Pressure Visibility Wind Dir Wind Speed Gust Speed Precip Events Conditions
12:53 AM 69.1 °F - 62.1 °F 78% 29.96 in 10.0 mi Calm Calm - N/A   Mostly Cloudy
1:53 AM 69.1 °F - 62.1 °F 78% 29.95 in 10.0 mi NNE 3.5 mph - N/A   Mostly Cloudy
2:53 AM 68.0 °F - 62.1 °F 81% 29.95 in 10.0 mi Calm Calm - N/A   Scattered Clouds
3:53 AM 66.9 °F - 61.0 °F 81% 29.95 in 10.0 mi NNE 3.5 mph - N/A   Mostly Cloudy
4:53 AM 66.0 °F - 61.0 °F 84% 29.96 in 9.0 mi Calm Calm - N/A   Mostly Cloudy
5:53 AM 64.9 °F - 61.0 °F 87% 29.95 in 8.0 mi NNE 4.6 mph - N/A   Clear
6:53 AM 66.9 °F - 61.0 °F 81% 29.96 in 8.0 mi Calm Calm - N/A   Scattered Clouds
7:53 AM 69.1 °F - 61.0 °F 75% 29.94 in 10.0 mi NE 9.2 mph - N/A   Clear
8:53 AM 73.9 °F - 63.0 °F 68% 29.96 in 10.0 mi NE 4.6 mph - N/A   Clear
9:53 AM 77.0 °F - 64.0 °F 64% 29.95 in 10.0 mi NNE 3.5 mph - N/A   Clear
10:53 AM 79.0 °F - 64.0 °F 60% 29.94 in 10.0 mi ENE 3.5 mph - N/A   Clear
11:53 AM 82.9 °F 84.6 °F 64.9 °F 54% 29.94 in 10.0 mi Calm Calm - N/A   Partly Cloudy
12:53 PM 82.0 °F 83.4 °F 64.0 °F 54% 29.91 in 10.0 mi East 3.5 mph - N/A   Mostly Cloudy
1:53 PM 82.9 °F 83.7 °F 62.1 °F 49% 29.88 in 10.0 mi Calm Calm - N/A   Scattered Clouds
2:53 PM 84.0 °F 84.9 °F 63.0 °F 49% 29.84 in 10.0 mi Calm Calm - N/A   Scattered Clouds
3:53 PM 84.9 °F 86.1 °F 64.0 °F 49% 29.82 in 10.0 mi Variable 5.8 mph - N/A   Scattered Clouds
4:53 PM 84.0 °F 85.4 °F 64.0 °F 51% 29.81 in 10.0 mi East 5.8 mph - N/A   Scattered Clouds
5:53 PM 84.0 °F 85.4 °F 64.0 °F 51% 29.80 in 10.0 mi East 4.6 mph - N/A   Clear
6:53 PM 82.9 °F 85.0 °F 66.0 °F 56% 29.79 in 10.0 mi Calm Calm - N/A   Clear
7:53 PM 81.0 °F 83.3 °F 66.9 °F 62% 29.79 in 10.0 mi Calm Calm - 0.00 in Rain Light Rain
8:53 PM 78.1 °F - 68.0 °F 71% 29.79 in 10.0 mi NE 5.8 mph - 0.00 in Rain Light Rain
9:35 PM 71.6 °F - 66.2 °F 83% 29.83 in 4.0 mi North 15.0 mph 25.3 mph 0.05 in Rain , Thunderstorm Rain
9:50 PM 69.8 °F - 66.2 °F 88% 29.85 in 5.0 mi NW 8.1 mph - 0.09 in Rain Rain
9:53 PM 70.0 °F - 66.9 °F 90% 29.84 in 5.0 mi NW 5.8 mph - 0.09 in Rain Rain
10:01 PM 69.8 °F - 66.2 °F 88% 29.86 in 1.8 mi Calm Calm - 0.06 in Rain , Thunderstorm Heavy Thunderstorms and Rain
10:14 PM 69.8 °F - 66.2 °F 88% 29.86 in 2.5 mi Calm Calm - 0.24 in Rain Light Rain
10:21 PM 69.8 °F - 66.2 °F 88% 29.85 in 6.0 mi NE 5.8 mph - 0.25 in Rain Light Rain
10:53 PM 70.0 °F - 66.9 °F 90% 29.82 in 10.0 mi NE 9.2 mph - 0.25 in   Mostly Cloudy
11:53 PM 70.0 °F - 64.9 °F 84% 29.81 in 9.0 mi NNE 8.1 mph - N/A   Overcast